sat.trackr.live / text

‹ back to catalog

STARLINK-11099 [DTC]

NORAD 59716 · 2024-088J

PAYLOAD ACTIVE UNKNOWN

§ Identity

Operator
Country
US
Launch date
2024-05-10
Launch site
AFWTR
Launch vehicle
Mass (kg)
RCS (m²)

Purposes: comms

External: N2YO · Heavens-Above · Gunter

§ Orbital elements

Epoch: 2026-05-25T03:54:10.097568Z

Period
91.74 min
Inclination
53.1572°
Eccentricity
0.0001132
Mean motion
15.69717831 rev/d
Perigee alt
358.9 km
Apogee alt
360.5 km
Semi-major
6,737.8 km
B*
3.1345e-5
RAAN
309.2476°
Arg perigee
71.9602°
Mean anomaly
288.1540°
Rev number
11,828

§ Raw data

STARLINK-11099 [DTC]1 59716U 24088J   26145.16261687  .00003211  00000+0  31345-4 0  99912 59716  53.1572 309.2476 0001132  71.9602 288.1540 15.69717831118282

JSON: /api/v1/satellites/59716 · /tle

For live sub-satellite position, see the globe view (requires WebGL).

§ Visibility from observer

Set your observer location to see the next 7 days of passes ≥ 10°. The values pass through the URL so the page stays shareable.

No JS? Fill the form by hand. The geolocation button needs JavaScript.